Location: Eitze
(52.9840°N, 9.6894°E)
Time: 01:58:13
(UTC+00:00)

Spot 4 - Pass Details

Date: 19 May 2025
Orbit: 699 x 715 km, 98.3° (Epoch: 23 June)

Event Time Altitude Azimuth Distance (km) Brightness Sun altitude
Exits shadow 22:56:51 27° 200° (SSW) 1,323 4.7 -16.9°
Maximum altitude 22:59:07 49° 260° (W) 907 4.3 -16.9°
Drops below altitude 10° 23:03:46 10° 336° (NNW) 2,188 7.5 -17.0°
Sets 23:06:07 0° 342° (NNW) 3,114 8.7 -17.0°
